www.pogodaiklimat.ru

Погода и климат >> Архив погоды >> Россия >> Саратовская область >> Карабулак


ПОГОДА в Карабулаке

  • Прогноз погоды в Карабулаке
  • Монитор погоды в Карабулаке

АРХИВ ПОГОДЫ в Карабулаке

Время (UTC), дата Ветер
(напр.,м/с)
 
Видим.   Явления Облачность Т
(С)
Тd
(С)
f
(%)
Тe
(С)
Тes
(С)
Комфортность P
(гПа)
Po
(гПа)
Тmin
(С)
Tmax
(С)
R
(мм)
R24
(мм)
S
(см)
18 11.08 СЗ 8-11
{13}
10 км 10/0
[Ac As]
+12.4 +11.0 91 +9 +9 1008.8 973.4
21 11.08 СЗ 8-13
{13}
10 км 10/0
[As op]
+12.0 +10.0 88 +9 +9 1009.4 974.0
00 12.08 С 6
{14}
10 км 10/0
[Ac As]
+11.2 +10.0 92 +8 +8 1009.9 974.4
03 12.08 С 8-13
{14}
20 км 9/9 300 м
[St]
+10.6 +8.0 84 +7 +7 1011.3 975.6 +10.4
06 12.08 С 9-13
{14}
20 км 9/9 600 м
[Sc]
+11.5 +7.7 77 +8 +8 1012.4 976.8 +10.1
09 12.08 СЗ 8-14
{14}
20 км 8/8 600 м
[Sc]
+14.4 +7.7 64 +12 +13 1012.4 977.0
12 12.08 СЗ 6-12
{14}
20 км 3/3 600 м
[Sc diur, vesp]
+16.1 +6.2 52 +15 +17 1012.7 977.4
15 12.08 СЗ 7-11
{14}
20 км 3/3 600 м
[Sc diur, vesp]
+16.4 +6.1 50 +15 +15 1012.8 977.8 +17.0
18 12.08 СЗ 4
{11}
10 км ясно +9.9 +6.6 80 +7 +7 1015.1 979.2
21 12.08 С 5 10 км ясно +8.2 +4.8 79 +5 +5 1015.6 979.4
00 13.08 СЗ 5 10 км ясно +6.6 +4.3 85 +2 +2 1016.4 980.0
03 13.08 СЗ 4 20 км ясно +6.8 +5.1 89 +3 +4 1017.2 980.8 +5.1
06 13.08 СЗ 8-12
{12}
20 км ясно +13.1 +6.3 63 +10 +12 1016.4 980.8
09 13.08 СЗ 7-11
{13}
20 км ясно +16.9 +5.0 45 +16 +20 1015.3 980.2
12 13.08 СЗ 7-11
{13}
20 км ясно +19.4 +3.6 35 +19 +21 1014.9 980.2
15 13.08 СЗ 7-11
{12}
20 км 3/0
[Ci fib]
+18.6 +3.1 36 +18 +18 1014.9 980.0 +19.6
18 13.08 С 4
{11}
10 км 3/0
[Ci fib]
+13.0 +5.2 59 +11 +11 1016.3 980.7
21 13.08 З 3 10 км 3/0
[Ci fib]
+9.2 +5.1 76 +7 +7 1017.0 981.0
00 14.08 З 3 10 км 1/0
[Ci fib]
+8.8 +4.4 74 +6 +6 1016.9 980.8
03 14.08 СЗ 1 20 км 8/0
[Ac trans Ci fib]
+10.8 +6.3 74 +11 +11 1017.0 981.1 +7.7
06 14.08 Ю 2 20 км 9/0
[As op Ci sp]
+17.2 +8.5 57 +18 +20 1015.5 980.4
09 14.08 Ю 4 20 км 9/8 1000 м
[Sc Ci sp]
+19.9 +8.7 48 +21 +23 комфорт 1013.8 979.2
12 14.08 Ю 3 20 км 5/3 1000 м
[Sc Ci sp]
+24.3 +13.4 51 +27 +31 жарко 1012.0 978.0
15 14.08 Ю 3 20 км 8/3 600 м
[Sc diur, vesp Ci sp]
+24.6 +14.6 54 +27 +28 жарко 1011.6 977.7 +25.5
18 14.08 ЮВ 2 10 км 4/4 600 м
[Sc diur, vesp]
+20.2 +13.3 65 +23 +23 комфорт 1012.9 978.4
21 14.08 Ю 3 10 км ясно +18.5 +11.4 63 +19 +19 1013.6 978.8
00 15.08 ЮВ 3 10 км ясно +17.8 +9.8 59 +18 +18 1014.3 979.4
03 15.08 ЮВ 3 20 км ясно +17.4 +8.4 55 +17 +18 1015.3 980.3 +16.4
06 15.08 Ю 4 20 км ясно +21.5 +7.3 40 +22 +28 комфорт 1015.5 981.0
09 15.08 Ю 4 20 км ясно +26.0 +10.4 37 +27 +36 жарко 1015.1 981.1
12 15.08 ЮВ 2 20 км ясно +28.4 +13.8 41 +30 +38 жарко 1014.1 980.5
15 15.08 Ю 2 20 км ясно +27.5 +14.2 44 +30 +30 жарко 1013.8 980.1 +28.5
18 15.08 ЮВ 2 10 км 1/0
[Ci sp]
+22.7 +13.4 56 +26 +26 жарко 1014.9 980.6
21 15.08 Ю 3 10 км ясно +20.8 +13.5 63 +24 +24 комфорт 1015.3 980.8
00 16.08 Ю 3 10 км ясно +19.5 +13.0 66 +21 +21 комфорт 1015.1 980.4
03 16.08 Ю 3 20 км 10/0
[As op Ci sp]
+19.0 +12.8 67 +20 +20 1015.0 980.3 +18.5
06 16.08 Ю 3 20 км 9/0
[Ci sp]
+22.9 +13.9 57 +26 +32 жарко 1014.2 980.0
09 16.08 ЮВ 5 20 км 10/0
[Ci fib]
+28.2 +13.7 41 +30 +36 жарко 1012.2 978.6
12 16.08 Ю 4
{12}
20 км 9/0
[Ci sp]
+29.2 +14.2 40 +31 +35 жарко 1010.7 977.3
15 16.08 Ю 2 20 км 9/0
[Ci fib]
+26.3 +16.0 53 +30 +30 душно 1010.9 977.2 +29.9
18 16.08 Ю 3 10 км 8/0
[Ac und]
+23.6 +13.0 51 +26 +26 жарко 1012.0 977.9
21 16.08 ЮВ 2 10 км 6/0
[Ci sp]
+22.0 +12.3 54 +24 +24 комфорт 1012.2 977.9
00 17.08 ЮВ 3 10 км 10/0
[Ac und]
+21.2 +11.4 54 +23 +23 комфорт 1012.5 978.1
03 17.08 ЮВ 5 10 км 9/0
[Ac trans]
+20.0 +9.8 52 +21 +21 комфорт 1012.4 977.9 +20.0
06 17.08 Ю 3 20 км 9/6 1000 м
[Sc Ac trans]
+21.2 +11.8 55 +23 +25 комфорт 1013.1 978.7 +19.0
09 17.08 Ю 4 20 км 10/8 1000 м
[Sc Ac As]
+24.5 +14.0 52 +27 +27 жарко 1013.0 979.0
12 17.08 Ю 2 20 км 10/0
[Ac und]
+25.8 +12.6 44 +28 +30 жарко 1012.8 978.9
15 17.08 В 4 20 км 8/0
[Ac trans]
+24.9 +10.8 41 +26 +26 жарко 1011.5 977.5 +27.1
18 17.08 В 5 10 км 10/0
[Ac As]
+24.6 +8.4 36 +25 +25 комфорт 1011.0 977.0
21 17.08 ЮВ 2 10 км 9/0
[Ac und]
+22.6 +8.5 40 +24 +24 комфорт 1011.2 977.0
00 18.08 В 1 10 км слаб. ливневой дождь 9/9 1000 м
[Cb cap]
+20.4 +13.2 63 +24 +24 комфорт 1011.9 977.4
03 18.08 ЮВ 3 20 км 9/0
[Ac und Ci sp]
+20.2 +11.1 56 +22 +22 комфорт 1012.3 977.8 +19.4 0.0
06 18.08 ЮВ 3 20 км 9/0
[Ac trans]
+21.3 +11.6 54 +23 +26 комфорт 1013.0 978.6 +18.9
09 18.08 Ю 5 20 км 9/0
[Ac As]
+23.3 +15.3 61 +28 +30 душно 1013.6 979.4
12 18.08 Ю 5
{10}
20 км 9/5 1000 м
[Sc diur, vesp Ci sp]
+27.2 +12.1 39 +28 +30 жарко 1013.9 980.1

 

Местоположение метеостанции Карабулак (Саратовская область, Россия): широта 52.33 долгота 46.37 высота над уровнем моря 302 м.

В архиве по умолчанию представлена погода в Карабулаке за последнюю неделю. Архивные данные за месяц целиком и за предыдущие месяцы, начиная с января 2011 года, Вы можете получить, выбрав интересующий диапазон дат из раскрывающегося списка и нажав кнопку "Ввод!".


*Определитесь, кто Вы:
робот инопланетянин человек

Внимание! Время в таблицах - всемирное. Для получения местного времени необходимо прибавить поправку, которая равна 4 ч.

Смотрите также архив погоды в соседних городах и на ближайших метеорологических станциях:

Погода в Петровске (Саратовская область, Россия) (66 км)
Погода в Маркс (Саратовская область, Россия) (74 км)
Погода в Радищево (Пензенская область, Россия) (80 км)
Погода в Саратове (Саратовская область, Россия) (88 км)
Погода в Саратове ЮВ (Саратовская область, Россия) (88 км)
Погода в Октябрьском Городке (Саратовская область, Россия) (100 км)
Погода в Кондоле (Пензенская область, Россия) (103 км)
Погода в Балаково (Саратовская область, Россия) (105 км)
Погода в Аткарске (Саратовская область, Россия) (105 км)
Погода в Городище (Пензенская область, Россия) (115 км)

Пояснения к столбцам:

Ветер - указаны скорость ветра в м/с - средняя за 10 мин, порывы в срок и между сроками (в фигурных скобках) и направление, откуда дует ветер: С - северный, СВ - северо-восточный, В - восточный, ЮВ - юго-восточный, Ю - южный, ЮЗ - юго-западный, З - западный, СЗ - северо-западный.
Видимость - горизонтальная дальность видимости в метрах или километрах. При видимости от 1 до 10 км при отсутствии осадков обычно наблюдается дымка, при ухудшении видимости до 1 км и менее - туман. В сухую погоду видимость может ухудшаться дымом, пылью или мглою.
Явления - указаны атмосферные явления, наблюдавшиеся в срок или в последний час перед сроком; фигурными скобками обозначены явления, наблюдавшиеся между сроками (за 1-3 часа до срока); квадратными скобками обозначены град или гололедные отложения с указанием их диаметра в мм.
Облачность - указаны через наклонную черту общая и нижняя облачность в баллах и высота нижней границы облаков в метрах; квадратными скобками обозначены формы облаков: Ci - перистые, Cs - перисто-слоистые, Cc - перисто-кучевые, Ac - высококучевые, As - высокослоистые, Sc - слоисто-кучевые, Ns - слоисто-дождевые, Cu - кучевые, Cb - кучево-дождевые. Подробнее классификацию облаков см. в Атласе облаков (PDF).
T - Температура воздуха - температура, измеренная на высоте 2 м над землей.
Td - Температура точки росы - температура, при понижении до которой содержащийся в воздухе водяной пар достигнет насыщения.
f - Относительная влажность воздуха - влажноcть воздуха, измеренная на высоте 2 м над землей.
Te - Эффективная температура - температура, которую ощущает одетый по сезону человек в тени. Характеристика душности погоды. При расчете учитывается влияние влажности воздуха и скорости ветра на теплоощущения человека.
Tes - Эффективная температура на солнце - температура, которую ощущает человек, с поправкой на солнечный нагрев. Характеристика знойности погоды. Зависит от высоты солнца над горизонтом, облачности и скорости ветра. Ночью, в пасмурную погоду, а также при ветре 12 м/с и более поправка равна нулю.
P - Атмосферное давление - приведенное к уровню моря атмосферное давление.
Po - Атмосферное давление - измеренное на уровне метеостанции атмосферное давление.
Tmin - Минимальная температура - минимум температуры воздуха на высоте 2 м над землей.
Tmax - Максимальная температура - максимум температуры воздуха на высоте 2 м над землей.
R - Количество осадков - Количество выпавших осадков за период времени, мм. При наведении курсора мыши на число - период времени, за который выпало указанное количество осадков.
R24 - Количество осадков - Количество выпавших осадков за 24 часа, мм.
S - Снежный покров - Высота снежного покрова, см. При наведении курсора мыши на число - состояние снежного покрова и степень покрытия местности в баллах.